Find OneWeb SL0614

NORAD ID: 55156 Int'l Des: 2023-004 Owner: ONEWEBN Country: UK Constellation: oneweb operational
別名: ONEWEB-0614 spacetrack, celestrak
LEOCIRCULARPOLARONEWEB_TYPE

現在のビュー

3D地球を読み込み中...

About OneWeb SL0614

OneWeb SL0614 (NORAD 55156) is a oneweb constellation satellite launched Jan 10, 2023 by ONEWEBN of UK. It operates in LEO, CIRCULAR, POLAR, ONEWEB_TYPE orbit with a mass of 148.00 kg.

次回通過

Passes for default location (London). Set your location on the main map for personalized predictions.

高度履歴

Loading altitude history...

軌道要素

1 55156U 23004S 26265.73875035 .00000075 00000-0 17628-3 0 9999
2 55156 87.8960 1.6831 0002048 112.1096 248.0249 13.11414173178624
Epoch: Sep 22, 2026 • Age: 12 hours

現在のステータス

高度 1228.4 km
遠地点 / 近地点 N/A
速度 7.24 km/s
衛星直下点 -28.27°S, 94°E
打ち上げ日 Jan 10, 2023
運用期間 3.7 years
タイプ internet

技術仕様

分類 Payload
質量 148.00 kg
乾燥質量 140.00 kg
長さ 1.30 m
直径 1.00 m
スパン 5.00 m
形状 ? Trapezoid+2 pan
製造者 ONEWUS
バスタイプ ARROW
フェーズステータス In Orbit
所有者/国 ONEWEBN/UK

Most Searched